Tracking 30970 objects as of 3-Jul-2025
HD Live streaming from Space Station
objects crossing your sky now

THOR ABLESTAR DEB

Track THOR ABLESTAR DEB now!
10-day predictions


NORAD ID: 318
Int'l Code: 1961-015CU
Perigee: 191.5 km
Apogee: 218.4 km
Inclination: 66.5 °
Period: 88.4 minutes
Semi major axis: 6575 km
RCS: 0.0477 m2 (small)
Launch date: June 29, 1961
Source: United States (US)
Launch site: AIR FORCE EASTERN TEST RANGE (AFETR)

Note: This is SATELLITE DEBRIS
Your satellite tracking list
Your tracking list is empty




NASA's NSSDC Master Catalog

Two Line Element Set (TLE):
1 00318U 61015CU  25180.16720848  .08085138  63895-5  20234-2 0  9999
2 00318  66.5027  94.9228 0020443 242.1324 117.7801 16.28039588361763
Source of the keplerian elements: AFSPC